EST,Max TemperatureF,Mean TemperatureF,Min TemperatureF,Max Dew PointF,MeanDew PointF,Min DewpointF,Max Humidity, Mean Humidity, Min Humidity, Max Sea Level PressureIn, Mean Sea Level PressureIn, Min Sea Level PressureIn, Max VisibilityMiles, Mean VisibilityMiles, Min VisibilityMiles, Max Wind SpeedMPH, Mean Wind SpeedMPH, Max Gust SpeedMPH,PrecipitationIn, CloudCover, Events, WindDirDegrees
2012-11-1,43,38,32,37,35,27,85,69,53,29.86,29.79,29.74,10,10,10,16,11,29,T,5,,284
2012-11-2,51,43,35,36,30,25,65,52,38,30.00,29.88,29.83,10,10,10,14,7,22,0.00,4,,290
2012-11-3,53,43,32,43,33,30,100,71,41,30.11,30.06,30.00,10,10,4,12,6,16,0.22,2,Rain,292
2012-11-4,51,41,30,46,41,34,100,83,65,30.08,30.04,30.00,10,8,1,8,3,,0.02,7,Rain,269
2012-11-5,48,37,25,34,31,27,100,73,46,30.10,30.07,30.04,10,10,7,7,2,,0.00,0,,259
2012-11-6,36,31,25,34,31,27,100,91,82,30.14,30.05,29.95,10,10,2,7,2,,0.00,1,,103
2012-11-7,47,34,21,37,31,25,100,78,56,29.97,29.91,29.85,10,7,2,8,2,,0.00,5,,344
2012-11-8,51,41,31,28,26,23,70,51,32,30.18,30.08,29.97,10,10,10,16,8,23,0.00,0,,290
2012-11-9,59,44,29,36,32,27,82,59,35,30.28,30.23,30.17,10,10,7,10,4,18,0.00,0,,276
2012-11-10,70,48,26,43,36,30,100,66,31,30.39,30.34,30.27,10,10,7,5,1,,0.00,0,,155
2012-11-11,69,50,30,52,41,34,92,61,29,30.48,30.42,30.38,10,10,10,12,3,17,0.00,1,,166
2012-11-12,61,59,56,61,56,46,97,86,75,30.41,30.30,30.20,10,9,2,10,6,18,0.06,8,Rain,184
2012-11-13,46,36,25,46,34,28,100,75,49,30.44,30.36,30.27,10,10,5,10,6,9,0.07,2,Rain,298
2012-11-14,43,33,22,30,29,25,100,79,58,30.50,30.42,30.37,10,10,10,7,2,,0.00,0,,84
2012-11-15,46,34,22,34,31,27,100,78,56,30.36,30.31,30.25,10,10,5,6,1,,0.00,0,,92
2012-11-16,55,38,21,36,29,25,100,68,35,30.43,30.32,30.28,10,8,3,4,0,,0.00,0,,335
2012-11-17,52,38,23,36,29,27,100,69,38,30.53,30.49,30.42,10,10,5,10,4,16,0.00,0,,86
2012-11-18,50,40,30,41,35,28,85,74,63,30.53,30.49,30.44,10,10,10,12,5,17,0.00,4,,73
2012-11-19,54,43,32,45,40,36,100,81,61,30.45,30.33,30.23,10,9,3,7,3,,0.00,4,,71
2012-11-20,57,44,30,46,38,34,100,74,47,30.22,30.14,30.08,10,7,0,6,1,,0.00,1,Fog,287
2012-11-21,61,43,25,37,32,28,100,66,32,30.23,30.17,30.13,10,10,5,6,1,,0.00,0,,299
2012-11-22,61,42,23,36,31,27,100,67,34,30.29,30.23,30.18,10,10,7,5,1,,0.00,0,,104
2012-11-23,56,40,24,46,36,27,100,77,53,30.17,30.03,29.92,10,10,7,20,6,32,0.00,2,,275
2012-11-24,37,30,22,30,23,19,75,66,56,30.10,30.03,29.94,10,10,10,23,13,29,0.00,6,,303
2012-11-25,48,34,20,23,20,18,88,59,29,30.10,30.04,29.96,10,10,10,9,5,17,0.00,0,,257
2012-11-26,56,43,29,45,30,19,93,64,35,30.19,30.14,30.05,10,10,7,9,3,,0.01,3,Rain,253
2012-11-27,42,37,32,45,41,36,100,93,85,30.24,30.17,30.12,10,9,4,7,2,,0.12,7,Rain,287
2012-11-28,44,36,28,36,27,21,85,63,40,30.37,30.30,30.23,10,10,10,12,7,22,0.00,3,,289
2012-11-29,51,35,19,30,26,21,100,68,35,30.44,30.37,30.33,10,10,10,6,1,,0.00,0,,263
2012-11-30,57,40,22,36,30,25,100,68,36,30.38,30.33,30.27,10,10,7,6,1,,0.00,0,,291